Orlando, FL

2:42 AM EDT on August 22, 2017 (GMT -0400)
Executive

Weather History for KORL - February, 2014

Change the Weather History Date:

Thursday, February 6, 2014

  Actual Average Record
Temperature  
Mean Temperature 60 °F -  
Max Temperature 71 °F 69 °F 84 °F (2004)
Min Temperature 50 °F 50 °F 36 °F (2009)
Degree Days  
Heating Degree Days 4    
Growing Degree Days 10 (Base 50)    
Moisture  
Dew Point 55 °F    
Average Humidity 82    
Maximum Humidity 94    
Minimum Humidity 64    
Precipitation  
Precipitation 0.03 in - - ()
Sea Level Pressure  
Sea Level Pressure 30.14 in    
Wind  
Wind Speed 8 mph (North)    
Max Wind Speed 17 mph    
Max Gust Speed 21 mph    
Visibility 10 miles    
Events Rain    
Averages and records for this station are not official NWS values.
T = Trace of Precipitation, MM = Missing Value Source: NWS Daily Summary

Daily Weather History Graph

Daily Weather History Graph

Search for Another Location

Airport or City:

Trip Planner

Search our weather history database for the weather conditions in past years. The results will help you decide how hot, cold, wet, or windy it might be!

Date:

Astronomy

Feb. 06, 2014 Rise Set
Actual Time 7:10 AM EST 6:08 PM EST
Civil Twilight 6:45 AM EST 6:33 PM EST
Nautical Twilight 6:17 AM EST 7:01 PM EST
Astronomical Twilight 5:50 AM EST 7:29 PM EST
Moon 11:41 AM EST (2/6) 12:24 AM EST (2/6)
Length of Visible Light 11h 47m
Length of Day
10h 58m
Waxing Crescent, 49% of the Moon is Illuminated
Feb 6
Waxing Crescent
Feb 6
First Quarter
Feb 14
Full
Feb 22
Last Quarter
Mar 1
New

Hourly Weather History & Observations

Time (EST) Temp. Dew Point Humidity Pressure Visibility Wind Dir Wind Speed Gust Speed Precip Events Conditions
12:53 AM 71.1 °F 68.0 °F 90% 30.06 in 10.0 mi SW 3.5 mph - N/A   Clear
1:53 AM 71.1 °F 66.9 °F 87% 30.07 in 10.0 mi WNW 8.1 mph - N/A   Clear
2:10 AM 71.6 °F 68.0 °F 88% 30.06 in 10.0 mi WNW 6.9 mph - N/A   Mostly Cloudy
2:31 AM 71.6 °F 68.0 °F 88% 30.05 in 10.0 mi WNW 5.8 mph - N/A   Overcast
2:41 AM 71.6 °F 68.0 °F 88% 30.05 in 10.0 mi NW 5.8 mph - N/A   Overcast
2:53 AM 71.1 °F 68.0 °F 90% 30.06 in 10.0 mi NW 5.8 mph - N/A   Overcast
3:53 AM 71.1 °F 66.9 °F 87% 30.07 in 10.0 mi NW 4.6 mph - N/A   Overcast
4:50 AM 69.8 °F 66.2 °F 88% 30.06 in 10.0 mi North 5.8 mph - N/A   Overcast
4:53 AM 70.0 °F 66.0 °F 87% 30.07 in 10.0 mi North 5.8 mph - N/A   Overcast
5:31 AM 69.8 °F 66.2 °F 88% 30.08 in 10.0 mi North 3.5 mph - N/A   Mostly Cloudy
5:53 AM 66.0 °F 55.9 °F 70% 30.10 in 10.0 mi NNE 17.3 mph 20.7 mph N/A   Overcast
6:39 AM 64.4 °F 51.8 °F 64% 30.11 in 10.0 mi NE 10.4 mph - N/A   Overcast
6:53 AM 63.0 °F 51.1 °F 65% 30.14 in 10.0 mi NE 6.9 mph - N/A   Overcast
7:53 AM 62.1 °F 51.1 °F 67% 30.14 in 10.0 mi NE 8.1 mph - N/A   Overcast
8:53 AM 61.0 °F 52.0 °F 72% 30.17 in 10.0 mi NE 12.7 mph 16.1 mph N/A   Overcast
9:53 AM 60.1 °F 52.0 °F 75% 30.19 in 10.0 mi NE 6.9 mph - N/A   Overcast
10:53 AM 60.1 °F 51.1 °F 72% 30.20 in 10.0 mi NNE 11.5 mph - N/A   Overcast
11:53 AM 57.9 °F 52.0 °F 81% 30.19 in 10.0 mi NE 9.2 mph - 0.00 in   Overcast
12:53 PM 57.9 °F 51.1 °F 78% 30.17 in 10.0 mi NNE 9.2 mph - N/A   Overcast
1:33 PM 59.0 °F 51.8 °F 77% 30.13 in 10.0 mi NE 6.9 mph - N/A   Overcast
1:53 PM 60.1 °F 51.1 °F 72% 30.13 in 10.0 mi NE 6.9 mph - N/A   Overcast
2:53 PM 60.1 °F 51.1 °F 72% 30.12 in 10.0 mi NNE 10.4 mph - N/A   Overcast
3:53 PM 60.1 °F 53.1 °F 78% 30.11 in 10.0 mi NE 8.1 mph - 0.00 in Rain Light Rain
4:53 PM 59.0 °F 53.1 °F 81% 30.12 in 10.0 mi NNE 8.1 mph - 0.00 in   Overcast
5:20 PM 59.0 °F 53.6 °F 82% 30.11 in 10.0 mi NE 6.9 mph - N/A   Overcast
5:53 PM 59.0 °F 54.0 °F 83% 30.12 in 10.0 mi NNE 11.5 mph - N/A   Overcast
6:53 PM 57.0 °F 52.0 °F 83% 30.14 in 10.0 mi North 9.2 mph - N/A   Overcast
7:53 PM 53.1 °F 50.0 °F 89% 30.17 in 8.0 mi North 10.4 mph 20.7 mph 0.03 in Rain Light Rain
8:00 PM 51.8 °F 50.0 °F 94% 30.17 in 10.0 mi NNW 11.5 mph - 0.00 in Rain Light Rain
8:53 PM 52.0 °F 48.9 °F 89% 30.19 in 10.0 mi North 10.4 mph - 0.00 in   Overcast
9:27 PM 51.8 °F 48.2 °F 88% 30.18 in 10.0 mi North 12.7 mph - N/A   Overcast
9:45 PM 51.8 °F 48.2 °F 88% 30.19 in 10.0 mi North 10.4 mph - N/A   Overcast
9:53 PM 52.0 °F 48.9 °F 89% 30.21 in 10.0 mi North 8.1 mph - N/A   Overcast
10:53 PM 50.0 °F 46.9 °F 89% 30.22 in 10.0 mi NNW 10.4 mph - N/A   Overcast
11:14 PM 50.0 °F 46.4 °F 87% 30.20 in 10.0 mi North 11.5 mph 20.7 mph N/A   Overcast
11:28 PM 50.0 °F 46.4 °F 87% 30.20 in 10.0 mi NNW 9.2 mph - N/A   Overcast
11:38 PM 50.0 °F 46.4 °F 87% 30.19 in 10.0 mi North 10.4 mph - N/A   Overcast
11:53 PM 50.0 °F 46.9 °F 89% 30.21 in 10.0 mi North 10.4 mph - N/A   Overcast